| time (UTC) | temp F | wind direction | speed MPH | gust MPH | rain 1hr in | rain 24hr in | rain mn in | humidity % | barometer mb |
| 20260507113125 | 39 | 0 | 0.0 | 0.0 | 0.00 | 0.00 | 0.00 | 96 | 1015.7 |
| 20260507111559 | 38 | 0 | 0.0 | 0.0 | 0.00 | 0.00 | 0.00 | 96 | 1015.5 |
| 20260507110051 | 38 | 0 | 0.0 | 0.0 | 0.00 | 0.00 | 0.00 | 95 | 1015.1 |
| 20260507104605 | 38 | 0 | 0.0 | 0.0 | 0.00 | 0.00 | 0.00 | 95 | 1015.0 |
| 20260507103051 | 39 | 0 | 0.0 | 0.0 | 0.00 | 0.00 | 0.00 | 95 | 1015.1 |
| 20260507101556 | 39 | 0 | 0.0 | 0.0 | 0.00 | 0.00 | 0.00 | 95 | 1015.0 |
| 20260507100059 | 39 | 0 | 0.0 | 0.0 | 0.00 | 0.00 | 0.00 | 95 | 1015.0 |
| 20260507094611 | 39 | 0 | 0.0 | 0.0 | 0.00 | 0.01 | 0.00 | 95 | 1015.0 |
| 20260507093052 | 40 | 0 | 0.0 | 0.0 | 0.00 | 0.01 | 0.00 | 94 | 1014.9 |
| 20260507091555 | 40 | 0 | 0.0 | 0.0 | 0.00 | 0.01 | 0.00 | 95 | 1014.7 |
| 20260507090049 | 40 | 0 | 0.0 | 0.0 | 0.00 | 0.01 | 0.00 | 94 | 1014.8 |
| 20260507084557 | 41 | 0 | 0.0 | 0.0 | 0.00 | 0.02 | 0.00 | 95 | 1014.7 |
| 20260507083053 | 41 | 0 | 0.0 | 0.0 | 0.00 | 0.02 | 0.00 | 94 | 1014.7 |
| 20260507081551 | 41 | 0 | 0.0 | 0.0 | 0.00 | 0.02 | 0.00 | 94 | 1014.6 |
| 20260507080054 | 41 | 0 | 0.0 | 0.0 | 0.00 | 0.02 | 0.00 | 94 | 1014.6 |
| 20260507074554 | 42 | 0 | 0.0 | 0.0 | 0.00 | 0.11 | 0.00 | 94 | 1014.5 |
| 20260507073047 | 42 | 0 | 0.0 | 0.0 | 0.00 | 0.11 | 0.00 | 93 | 1014.5 |
| 20260507071553 | 42 | 0 | 0.0 | 0.0 | 0.00 | 0.11 | 0.00 | 94 | 1014.5 |
| 20260507064556 | 42 | 0 | 0.0 | 0.0 | 0.00 | 0.34 | 0.00 | 93 | 1014.6 |
| 20260507063055 | 42 | 0 | 0.0 | 0.0 | 0.00 | 0.34 | 0.00 | 92 | 1014.9 |
| 20260507061550 | 42 | 0 | 0.0 | 0.0 | 0.00 | 0.34 | 0.00 | 92 | 1014.8 |
| 20260507060050 | 43 | 0 | 0.0 | 0.0 | 0.00 | 0.34 | 0.00 | 91 | 1014.8 |
| 20260507054545 | 43 | 0 | 0.0 | 0.0 | 0.00 | 0.52 | 0.00 | 90 | 1014.7 |
| 20260507053051 | 43 | 0 | 0.0 | 0.0 | 0.00 | 0.52 | 0.00 | 91 | 1015.0 |
| 20260507051559 | 43 | 0 | 0.0 | 0.0 | 0.00 | 0.52 | 0.00 | 90 | 1014.7 |
| 20260507050105 | 44 | 0 | 0.0 | 0.0 | 0.00 | 0.52 | 0.00 | 89 | 1014.9 |
| 20260507044553 | 44 | 0 | 0.0 | 0.0 | 0.00 | 0.61 | 0.00 | 89 | 1015.1 |
| 20260507043049 | 44 | 0 | 0.0 | 0.0 | 0.00 | 0.61 | 0.00 | 88 | 1015.1 |
| 20260507041546 | 45 | 0 | 0.0 | 0.0 | 0.00 | 0.61 | 0.00 | 87 | 1015.0 |
| 20260507040050 | 45 | 0 | 0.0 | 0.0 | 0.00 | 0.61 | 0.00 | 86 | 1014.8 |
| 20260507034550 | 46 | 0 | 0.0 | 0.0 | 0.00 | 0.63 | 0.61 | 85 | 1014.7 |
| 20260507033049 | 46 | 0 | 0.0 | 0.0 | 0.00 | 0.63 | 0.61 | 84 | 1015.0 |
| 20260507031552 | 47 | 0 | 0.0 | 0.0 | 0.00 | 0.63 | 0.61 | 83 | 1014.9 |
| 20260507030051 | 47 | 0 | 0.0 | 0.0 | 0.00 | 0.63 | 0.61 | 81 | 1014.8 |
| 20260507024551 | 48 | 0 | 0.0 | 0.0 | 0.00 | 0.72 | 0.61 | 81 | 1014.9 |
| 20260507023051 | 49 | 0 | 0.0 | 0.0 | 0.00 | 0.72 | 0.61 | 79 | 1014.7 |
| 20260507021559 | 50 | 0 | 0.0 | 0.0 | 0.00 | 0.72 | 0.61 | 78 | 1014.7 |
| 20260507020047 | 51 | 0 | 0.0 | 0.0 | 0.00 | 0.72 | 0.61 | 77 | 1014.5 |
| 20260507014551 | 51 | 0 | 0.0 | 0.0 | 0.00 | 0.79 | 0.61 | 75 | 1014.5 |
| 20260507013047 | 52 | 0 | 0.0 | 0.0 | 0.00 | 0.79 | 0.61 | 71 | 1014.4 |
| 20260507011556 | 53 | 0 | 0.0 | 0.0 | 0.00 | 0.79 | 0.61 | 71 | 1014.1 |
| 20260507010047 | 54 | 0 | 0.0 | 0.0 | 0.00 | 0.79 | 0.61 | 67 | 1014.2 |
| 20260507004550 | 55 | 0 | 0.0 | 1.0 | 0.00 | 0.79 | 0.61 | 65 | 1014.1 |
| 20260507003051 | 56 | 0 | 0.0 | 2.0 | 0.00 | 0.79 | 0.61 | 61 | 1014.1 |
| 20260507001547 | 56 | 0 | 0.0 | 0.0 | 0.00 | 0.79 | 0.61 | 62 | 1013.8 |
| 20260507000054 | 56 | 0 | 0.0 | 1.0 | 0.00 | 0.79 | 0.61 | 59 | 1013.8 |
| 20260506234607 | 57 | 0 | 0.0 | 2.0 | 0.00 | 0.80 | 0.61 | 58 | 1013.4 |
| 20260506233052 | 57 | 289 | 0.0 | 2.0 | 0.00 | 0.80 | 0.61 | 56 | 1013.2 |
| 20260506231551 | 58 | 0 | 0.0 | 2.0 | 0.00 | 0.80 | 0.61 | 57 | 1013.2 |
| 20260506230051 | 59 | 0 | 0.0 | 2.0 | 0.00 | 0.80 | 0.61 | 55 | 1012.9 |
| 20260506224553 | 59 | 0 | 0.0 | 3.0 | 0.00 | 0.80 | 0.61 | 56 | 1013.1 |
| 20260506223056 | 59 | 0 | 0.0 | 2.0 | 0.00 | 0.80 | 0.61 | 57 | 1013.1 |
| 20260506221551 | 59 | 0 | 0.0 | 3.0 | 0.00 | 0.80 | 0.61 | 57 | 1013.2 |
| 20260506220048 | 59 | 0 | 0.0 | 2.0 | 0.00 | 0.80 | 0.61 | 54 | 1013.6 |
| 20260506214547 | 60 | 0 | 0.0 | 2.0 | 0.00 | 0.84 | 0.61 | 54 | 1013.5 |
| 20260506213049 | 60 | 0 | 0.0 | 3.0 | 0.00 | 0.84 | 0.61 | 54 | 1013.4 |
| 20260506211547 | 60 | 0 | 0.0 | 2.0 | 0.00 | 0.84 | 0.61 | 55 | 1013.1 |
| 20260506210051 | 60 | 0 | 0.0 | 2.0 | 0.00 | 0.84 | 0.61 | 54 | 1012.9 |
| 20260506204558 | 60 | 0 | 0.0 | 3.0 | 0.00 | 1.19 | 0.61 | 55 | 1012.8 |
| 20260506203052 | 60 | 0 | 0.0 | 5.0 | 0.00 | 1.19 | 0.61 | 53 | 1012.9 |
| 20260506201556 | 61 | 0 | 0.0 | 6.0 | 0.00 | 1.19 | 0.61 | 54 | 1013.0 |
| 20260506200107 | 62 | 0 | 0.0 | 2.0 | 0.00 | 1.19 | 0.61 | 52 | 1012.9 |
| 20260506194611 | 62 | 69 | 0.0 | 4.0 | 0.00 | 1.31 | 0.61 | 51 | 1012.9 |
| 20260506193048 | 62 | 0 | 1.0 | 5.0 | 0.00 | 1.31 | 0.61 | 52 | 1012.8 |
| 20260506191548 | 61 | 0 | 0.0 | 7.0 | 0.00 | 1.31 | 0.61 | 57 | 1012.7 |
| 20260506190052 | 62 | 0 | 1.0 | 4.0 | 0.00 | 1.31 | 0.61 | 50 | 1012.6 |
| 20260506184552 | 62 | 184 | 1.0 | 6.0 | 0.00 | 1.31 | 0.61 | 54 | 1012.5 |
| 20260506183102 | 61 | 200 | 0.0 | 4.0 | 0.00 | 1.31 | 0.61 | 55 | 1012.5 |
| 20260506181558 | 60 | 0 | 1.0 | 4.0 | 0.00 | 1.31 | 0.61 | 59 | 1012.5 |
| 20260506180053 | 61 | 0 | 0.0 | 7.0 | 0.00 | 1.31 | 0.61 | 56 | 1012.8 |
| 20260506174549 | 60 | 0 | 0.0 | 4.0 | 0.00 | 1.31 | 0.61 | 58 | 1012.8 |
| 20260506173054 | 59 | 98 | 1.0 | 8.0 | 0.00 | 1.31 | 0.61 | 53 | 1013.0 |
| 20260506171551 | 59 | 0 | 0.0 | 4.0 | 0.00 | 1.31 | 0.61 | 58 | 1013.1 |
| 20260506170050 | 58 | 0 | 0.0 | 4.0 | 0.00 | 1.31 | 0.61 | 60 | 1013.2 |
| 20260506164552 | 57 | 0 | 1.0 | 7.0 | 0.00 | 1.31 | 0.61 | 62 | 1013.4 |
| 20260506163051 | 56 | 49 | 0.0 | 5.0 | 0.00 | 1.31 | 0.61 | 61 | 1013.3 |
| 20260506161551 | 56 | 0 | 0.0 | 4.0 | 0.00 | 1.31 | 0.61 | 65 | 1013.3 |
| 20260506160055 | 55 | 109 | 1.0 | 5.0 | 0.00 | 1.31 | 0.61 | 65 | 1013.2 |
| 20260506154556 | 54 | 0 | 0.0 | 7.0 | 0.00 | 1.31 | 0.61 | 70 | 1012.9 |
| 20260506153047 | 54 | 71 | 2.0 | 8.0 | 0.00 | 1.31 | 0.61 | 72 | 1013.2 |
| 20260506151602 | 54 | 0 | 1.0 | 4.0 | 0.00 | 1.31 | 0.61 | 72 | 1012.9 |
| 20260506150050 | 53 | 0 | 0.0 | 5.0 | 0.00 | 1.31 | 0.61 | 77 | 1012.9 |
| 20260506144550 | 52 | 0 | 0.0 | 5.0 | 0.00 | 1.31 | 0.61 | 77 | 1012.4 |
| 20260506143055 | 52 | 0 | 0.0 | 4.0 | 0.00 | 1.31 | 0.61 | 81 | 1012.4 |
| 20260506141545 | 51 | 0 | 0.0 | 4.0 | 0.00 | 1.31 | 0.61 | 82 | 1012.1 |
| 20260506140059 | 50 | 0 | 0.0 | 2.0 | 0.00 | 1.31 | 0.61 | 87 | 1011.7 |
| 20260506134549 | 49 | 0 | 0.0 | 3.0 | 0.00 | 1.31 | 0.61 | 87 | 1012.2 |
| 20260506133049 | 48 | 0 | 0.0 | 4.0 | 0.00 | 1.31 | 0.61 | 89 | 1012.1 |
| 20260506131555 | 47 | 0 | 0.0 | 6.0 | 0.00 | 1.31 | 0.61 | 91 | 1011.5 |
| 20260506130100 | 47 | 0 | 0.0 | 1.0 | 0.00 | 1.31 | 0.61 | 95 | 1011.4 |
| 20260506124553 | 46 | 0 | 0.0 | 2.0 | 0.00 | 1.31 | 0.61 | 96 | 1011.5 |
| 20260506123048 | 46 | 0 | 0.0 | 1.0 | 0.00 | 1.31 | 0.61 | 97 | 1011.2 |
| 20260506121551 | 46 | 0 | 0.0 | 0.0 | 0.00 | 1.31 | 0.61 | 97 | 1011.1 |
| 20260506120050 | 45 | 0 | 0.0 | 0.0 | 0.00 | 1.31 | 0.61 | 97 | 1010.9 |
| 20260506114548 | 45 | 0 | 0.0 | 2.0 | 0.00 | 1.31 | 0.61 | 97 | 1010.7 |